Regional Weather Roundup
Issued by NWS

Home | Current Version | Previous Version | Text Only | Print | Product List | Glossary Off
Versions: 1 2 3 4 5 6 7 8 9 10 11 12 13 14 15 16 17 18 19 20 21 22 23 24 25 26 27 28 29 30 31 32 33 34 35 36 37 38 39 40 41 42 43 44 45 46 47 48 49 50

000
ASUS43 KLOT 301500
RWRIL

ILLINOIS REGIONAL WEATHER ROUNDUP
NATIONAL WEATHER SERVICE CHICAGO/ROMEOVILLE IL
900 AM CST FRI JAN 30 2015

NOTE: "FAIR" INDICATES FEW OR NO CLOUDS BELOW 12,000 FEET WITH NO
SIGNIFICANT WEATHER AND/OR OBSTRUCTIONS TO VISIBILITY.

* THESE STATIONS ARE NOT UNDER NWS QUALITY CONTROL. THEY ALSO MAY NOT
  REPORT WEATHER SUCH AS PRECIPITATION OR FOG.

ILZ001-002-007-009-015-016-024-301600-
NORTHWEST ILLINOIS

CITY           SKY/WX    TMP DP  RH WIND       PRES   REMARKS
MOLINE         SUNNY     22  11  62 NE3       30.56R
STERLING*      SUNNY     23  10  58 NE8       30.54R WCI  14
$$

ILZ003-004-008-010-011-017-018-301600-
NORTH CENTRAL ILLINOIS

CITY           SKY/WX    TMP DP  RH WIND       PRES   REMARKS
ROCKFORD       PTSUNNY   20   8  60 N8        30.54R WCI  10
$$

ILZ005-006-012>014-019>023-301600-
NORTHEAST ILLINOIS

CITY           SKY/WX    TMP DP  RH WIND       PRES   REMARKS
CHICAGO-OHARE  MOSUNNY   22   9  57 N9        30.50F WCI  12
CHICAGO-MIDWAY MOSUNNY   25  10  53 NW9       30.51S WCI  15
AURORA         SUNNY     23   9  55 N9        30.51S WCI  13
WAUKEGAN       SUNNY     21   9  59 NW6       30.50R WCI  13
DUPAGE AIRPORT SUNNY     22   8  55 N14       30.50S WCI   9
WHEELING       SUNNY     22   8  55 N7        30.52F WCI  13
NORTHERLY ISL    N/A     25   9  50 NW12        N/A  WCI  14
$$

LMZ740>746-301600-
SOUTHERN LAKE MICHIGAN

STATION/POSITION SKY/WX   TEMP    WIND        PRES    VSBY  WAVE
                          AIR SEA DIR/SP/G                  HT/PER
                          (F)     (DEG/KT/KT) (MB)    (MI)  (FT/S)
WAUKEGAN HARBOR            20     330/  8/ 13   N/A
HARRISON CRIB              22     320/ 17/ 20   N/A
BURNHAM HARBOR             25     330/  7/ 12   N/A
CALUMET HARBOR             23     310/  7/ 12   N/A
MICHIGAN CITY              26     340/ 22/ 24   N/A
$$

ILZ025>027-034>036-040-047-049-050-058-095>099-301600-
WEST-CENTRAL ILLINOIS

CITY           SKY/WX    TMP DP  RH WIND       PRES   REMARKS
QUINCY         SUNNY     25  17  72 N9        30.55R WCI  15
$$

ILZ028>032-037-038-041>044-048-051>054-059>061-301600-
CENTRAL ILLINOIS

CITY           SKY/WX    TMP DP  RH WIND       PRES   REMARKS
DECATUR        SUNNY     28  19  69 N13       30.53R WCI  17
PEORIA         SUNNY     26  15  63 N6        30.55R WCI  19
SPRINGFIELD    SUNNY     28  18  66 N7        30.55R WCI  21
TAYLORVILLE    NOT AVBL
$$

ILZ033-039-045-046-055>057-062-063-301600-
EAST-CENTRAL ILLINOIS

CITY           SKY/WX    TMP DP  RH WIND       PRES   REMARKS
CHAMPAIGN      SUNNY     28  17  63 N12       30.51R WCI  18
MATTOON        SUNNY     28  20  71 N13       30.51R WCI  17
$$

ILZ079-100>102-301600-
SOUTHWEST ILLINOIS

CITY           SKY/WX    TMP DP  RH WIND       PRES   REMARKS
ALTON          SUNNY     28  18  64 N7        30.56R WCI  21
BELLEVILLE     SUNNY     31  20  64 N10       30.56R WCI  22
CAHOKIA*       SUNNY     30  19  63 N13       30.57R WCI  20
$$

ILZ064>066-069>071-074>076-080>082-084>086-088>090-092>094-301600-
SOUTH-CENTRAL ILLINOIS

CITY           SKY/WX    TMP DP  RH WIND       PRES   REMARKS
CARBONDALE     CLOUDY    32  20  61 N12       30.54R WCI  23
MARION         CLOUDY    34  21  60 N14       30.54R WCI  24
MT. VERNON     CLOUDY    30  18  59 N6        30.54R WCI  24
$$

ILZ067-068-072-073-078-083-087-091-301600-
SOUTHEAST ILLINOIS

CITY           SKY/WX    TMP DP  RH WIND       PRES   REMARKS
LAWRENCEVILLE  SUNNY     32  23  69 N16       30.52R WCI  21
$$

ABBREVIATIONS USED IN REMARKS
   TC - TEMPERATURE IN CELSIUS
  WCI - WIND CHILL INDEX
   HX - HEAT INDEX
  VSB - VISIBILITY
$$




USA.gov is the U.S. government's official web portal to all federal, state and local government web resources and services.